"Time","Temp","Dewpoint","Humidity","Pressure","Direction","Speed","Gust","Precip","PrecipRate"
"00:04:57","64.1","62.6","95","30.09","349","0.1","1.2","0.00","0.00"
"00:09:59","64","62.5","95","30.09","349","0.1","2","0.00","0.00"
"00:14:56","64","62.5","95","30.09","349","0","1.2","0.00","0.00"
"00:19:56","63.9","62.4","95","30.08","349","0","2","0.00","0.00"
"00:24:56","63.9","62.4","95","30.08","343","1","4","0.00","0.00"
"00:29:57","63.9","62.4","95","30.08","342","0.5","2.3","0.00","0.00"
"00:34:56","63.9","62.4","95","30.08","333","0.8","5","0.00","0.00"
"00:39:58","63.9","62.4","95","30.08","341","1.6","5","0.00","0.00"
"00:44:59","63.8","62.3","95","30.08","356","2","6","0.00","0.00"
"00:49:57","63.8","62.3","95","30.08","348","1.2","4","0.00","0.00"
"00:54:58","63.8","62.3","95","30.08","348","1.8","4","0.00","0.00"
"00:59:59","63.8","62.3","95","30.08","347","1.4","3.5","0.00","0.00"
"01:04:57","63.8","62.3","95","30.08","333","1.2","5","0.00","0.00"
"01:09:58","63.7","62.2","95","30.08","347","1.6","5","0.00","0.00"
"01:14:57","63.7","62.4","95.7","30.08","348","1.4","5","0.00","0.00"
"01:19:57","63.6","62.4","96","30.08","339","0.9","3.5","0.00","0.00"
"01:24:59","63.6","62.4","96","30.08","340","1.2","4","0.00","0.00"
"01:29:59","63.5","62.3","96","30.08","345","2.1","5","0.00","0.00"
"01:34:59","63.5","62.3","96","30.07","330","0.7","7","0.00","0.00"
"01:39:56","63.4","62.2","96","30.07","347","2.8","6.9","0.00","0.00"
"01:44:57","63.4","62.2","96","30.07","334","2.7","6","0.00","0.00"
"01:49:57","63.4","62.2","96","30.07","348","1.5","4","0.00","0.00"
"01:54:57","63.4","62.2","96","30.07","349","1.2","4","0.00","0.00"
"01:59:58","63.4","62.2","96","30.07","346","1.5","4","0.00","0.00"
"02:04:57","63.4","62.2","96","30.07","348","1.2","5","0.00","0.00"
"02:09:56","63.4","62.2","96","30.07","343","1.1","4","0.00","0.00"
"02:14:59","63.3","62.4","96.8","30.07","344","0.9","3.5","0.00","0.00"
"02:19:59","63.3","62.4","97","30.06","341","0.7","3.5","0.00","0.00"
"02:24:59","63.3","62.4","97","30.06","339","0.2","3.5","0.00","0.00"
"02:29:59","63.3","62.4","97","30.06","338","0.8","3.5","0.00","0.00"
"02:34:59","63.3","62.4","97","30.05","338","0.3","2.3","0.00","0.00"
"02:39:58","63.2","62.3","97","30.05","338","0","2","0.00","0.00"
"02:44:57","63.2","62.3","97","30.05","338","0.9","3.5","0.00","0.00"
"02:49:56","63.2","62.3","97","30.05","338","0.7","3.5","0.00","0.00"
"02:54:59","63.1","62.1","96.7","30.05","333","1.4","4","0.00","0.00"
"02:59:58","63.1","62.1","96.7","30.05","332","0.9","3.5","0.00","0.00"
"03:04:58","63.1","62.1","96.8","30.05","333","0.5","3.5","0.00","0.00"
"03:09:57","63.1","62.1","96.7","30.05","334","0.2","3.5","0.00","0.00"
"03:14:59","63.1","61.9","96.1","30.05","334","1","3.5","0.00","0.00"
"03:19:59","63.1","62","96.2","30.04","334","0.7","3","0.00","0.00"
"03:24:59","63","61.8","96","30.04","343","1.2","4","0.00","0.00"
"03:29:57","63","61.8","96","30.04","0","0.9","3.5","0.00","0.00"
"03:34:56","62.9","61.7","96","30.04","360","1","3.5","0.00","0.00"
"03:39:57","62.9","61.7","96","30.04","359","0.2","3.5","0.00","0.00"
"03:44:58","62.8","61.6","96","30.04","342","0.8","3.5","0.00","0.00"
"03:49:58","62.6","61.4","96","30.04","341","0.8","2.3","0.00","0.00"
"03:54:57","62.5","61.3","96","30.04","341","0.7","3.5","0.00","0.00"
"03:59:56","62.5","61.3","96","30.04","341","0.8","2.3","0.00","0.00"
"04:04:59","62.4","61.2","96","30.04","341","0.7","3.5","0.00","0.00"
"04:09:57","62.3","61.3","96.6","30.04","341","0.4","2.3","0.00","0.00"
"04:14:56","62.4","61.5","97","30.04","340","0.9","4","0.00","0.00"
"04:19:56","62.4","61.5","97","30.04","336","1","5","0.00","0.00"
"04:24:56","62.5","61.6","97","30.04","333","0.5","2.3","0.00","0.00"
"04:29:58","62.6","61.7","97","30.05","356","0.8","5","0.00","0.00"
"04:34:56","62.6","61.7","97","30.05","346","1.8","4.6","0.00","0.00"
"04:39:57","62.7","61.8","97","30.05","340","2","5","0.00","0.00"
"04:44:57","62.7","61.8","97","30.05","331","1.7","3.5","0.00","0.00"
"04:49:56","62.7","61.8","97","30.05","332","1.3","4","0.00","0.00"
"04:54:59","62.7","61.8","97","30.05","336","1.3","4","0.00","0.00"
"04:59:57","62.8","61.9","97","30.05","345","1.4","6","0.00","0.00"
"05:04:56","62.8","61.9","97","30.04","331","1.6","5","0.00","0.00"
"05:09:57","62.8","61.9","97","30.04","333","0.8","3.5","0.00","0.00"
"05:14:57","62.8","61.9","97","30.04","333","0.2","2","0.00","0.00"
"05:19:58","62.8","61.9","97","30.04","333","0.3","2.3","0.00","0.00"
"05:24:58","62.8","61.8","96.8","30.04","333","0.4","2.3","0.00","0.00"
"05:29:59","62.8","61.8","96.8","30.05","337","0.9","4","0.00","0.00"
"05:34:56","62.8","61.9","97","30.05","343","1","3.5","0.00","0.00"
"05:39:56","62.8","61.8","96.8","30.05","345","0.5","2.3","0.00","0.00"
"05:44:58","62.8","61.8","96.6","30.05","329","1.4","4","0.00","0.00"
"05:49:58","62.8","61.7","96.5","30.05","341","2.2","6","0.00","0.00"
"05:54:57","62.8","61.6","96","30.05","334","1.3","5.8","0.00","0.00"
"05:59:59","62.8","61.6","96","30.06","349","1.2","4","0.00","0.00"
"06:04:58","62.8","61.6","96","30.06","327","1.1","3.5","0.00","0.00"
"06:09:57","62.8","61.6","96","30.06","329","1.5","4","0.00","0.00"
"06:14:59","62.8","61.6","96","30.07","335","1.3","4","0.00","0.00"
"06:19:57","62.8","61.6","96","30.07","356","0.9","3.5","0.00","0.00"
"06:24:56","62.8","61.6","96","30.07","355","1","4","0.00","0.00"
"06:29:58","62.8","61.6","96","30.07","360","1.6","4","0.00","0.00"
"06:34:58","62.8","61.6","96","30.07","349","1.1","3.5","0.00","0.00"
"06:39:59","62.7","61.5","96","30.07","330","1.1","3.5","0.00","0.00"
"06:44:59","62.7","61.5","96","30.08","339","1.1","4","0.00","0.00"
"06:49:57","62.7","61.5","96","30.08","349","1.2","5","0.00","0.00"
"06:54:58","62.7","61.3","95.4","30.08","349","1.2","6","0.00","0.00"
"06:59:56","62.6","61.1","95","30.08","339","0.7","4","0.00","0.00"
"07:04:56","62.6","61.1","95","30.08","332","1.3","3.5","0.00","0.00"
"07:09:58","62.6","61.1","95","30.08","332","0.8","2.3","0.00","0.00"
"07:14:57","62.6","61.1","95","30.08","337","1.3","4","0.00","0.00"
"07:19:57","62.5","60.9","94.7","30.08","340","0.8","3.5","0.00","0.00"
"07:24:57","62.5","60.7","94","30.08","344","1.1","3.5","0.00","0.00"
"07:29:56","62.5","60.7","94","30.09","345","0.5","2.3","0.00","0.00"
"07:34:56","62.5","60.7","94","30.09","340","0.5","2.3","0.00","0.00"
"07:39:58","62.4","60.4","93.3","30.09","329","1.3","3.5","0.00","0.00"
"07:44:56","62.4","60.1","92.3","30.10","334","0.4","2.3","0.00","0.00"
"07:49:58","62.3","59.9","92","30.10","323","0.6","3.5","0.00","0.00"
"07:54:58","62.3","59.9","92","30.10","324","0.3","3.5","0.00","0.00"
"07:59:57","62.4","59.8","91.3","30.10","324","0.4","3.5","0.00","0.00"
"08:04:59","62.4","59.9","91.5","30.10","1","1","3.5","0.00","0.00"
"08:09:57","62.4","59.8","91.2","30.10","351","1.3","6","0.00","0.00"
"08:14:56","62.5","59.8","91","30.10","339","1.5","5.8","0.00","0.00"
"08:19:59","62.5","59.8","91","30.10","312","0.8","4","0.00","0.00"
"08:24:57","62.5","59.7","90.7","30.10","338","1.1","6","0.00","0.00"
"08:29:57","62.5","59.5","90","30.10","346","1.9","5","0.00","0.00"
"08:34:57","62.5","59.5","90","30.10","353","1.4","4","0.00","0.00"
"08:39:57","62.6","59.6","90","30.10","338","1.7","5","0.00","0.00"
"08:44:59","62.6","59.7","90.2","30.11","341","0.6","2.3","0.00","0.00"
"08:49:57","62.7","59.9","90.7","30.11","355","0.1","4","0.00","0.00"
"08:54:57","62.7","60","91","30.11","347","0.9","4","0.00","0.00"
"08:59:58","62.7","59.9","90.7","30.11","342","0.1","4","0.00","0.00"
"09:04:56","62.7","60","91","30.11","348","0.8","4","0.00","0.00"
"09:09:58","62.8","60.1","91","30.11","340","0.6","4","0.00","0.00"
"09:14:57","62.8","60.1","91","30.11","16","1","3.5","0.00","0.00"
"09:19:56","62.8","60.1","91","30.11","9","0.7","3.5","0.00","0.00"
"09:24:58","62.9","60.1","90.9","30.11","345","0.6","5","0.00","0.00"
"09:29:59","62.9","60","90.3","30.11","344","1.2","4.6","0.00","0.00"
"09:34:56","63","60.1","90.2","30.11","349","0.8","5","0.00","0.00"
"09:39:59","63.2","60.3","90.5","30.11","334","0.3","3","0.00","0.00"
"09:44:56","63.3","60.3","90","30.11","330","1.2","4","0.00","0.00"
"09:49:57","63.4","60.5","90.2","30.11","337","1.7","7","0.00","0.00"
"09:54:59","63.5","60.5","90","30.11","347","1.9","6.9","0.00","0.00"
"09:59:58","63.6","60.6","90","30.11","350","1.3","6","0.00","0.00"
"10:04:56","63.7","60.7","90","30.11","332","1.8","5","0.00","0.00"
"10:09:58","63.8","60.8","90","30.11","359","1.6","5","0.00","0.00"
"10:14:56","64","61","89.9","30.11","12","1.1","5","0.00","0.00"
"10:19:56","64.1","61.1","90","30.11","347","1.3","5","0.00","0.00"
"10:24:57","64.2","60.9","89.1","30.11","356","0.9","4","0.00","0.00"
"10:29:58","64.2","60.8","88.5","30.11","344","1.7","4","0.00","0.00"
"10:34:56","64.2","60.9","89","30.11","349","0.7","6","0.00","0.00"
"10:39:59","64.2","61","89.2","30.11","340","1.4","6","0.00","0.00"
"10:44:58","64.2","60.8","88.7","30.11","350","1.8","5","0.00","0.00"
"10:49:58","64.2","60.7","88.2","30.11","321","0.7","4","0.00","0.00"
"10:54:59","64.3","60.7","88.2","30.11","333","1.9","7","0.00","0.00"
"10:59:59","64.4","60.9","88.5","30.11","351","2.2","6","0.00","0.00"
"11:04:57","64.6","61.1","88.4","30.10","340","2.9","8","0.00","0.00"
"11:09:59","64.8","61.2","88","30.10","349","1.7","8.1","0.00","0.00"
"11:14:57","65.1","61.2","87.2","30.10","355","1.5","4","0.00","0.00"
"11:19:57","65.3","61.2","86.7","30.10","342","1.9","5","0.00","0.00"
"11:24:58","65.3","61.1","86.3","30.10","342","0.9","4.6","0.00","0.00"
"11:29:59","65.4","61.2","86.2","30.10","343","2.5","6","0.00","0.00"
"11:34:59","65.5","61.3","86.4","30.09","344","1.3","5","0.00","0.00"
"11:39:57","65.6","61.5","86.7","30.09","345","1.1","4.6","0.00","0.00"
"11:44:58","65.7","61.5","86.4","30.09","344","1.5","5","0.00","0.00"
"11:49:56","65.7","61.4","86","30.09","334","2.1","5","0.00","0.00"
"11:54:56","65.7","61.7","87","30.09","336","0.7","3.5","0.00","0.00"
"11:59:57","65.8","61.6","86.6","30.09","341","1.4","5","0.00","0.00"
"12:04:55","65.7","61.5","86.1","30.09","350","1.7","4","0.00","0.00"
"12:09:58","65.7","61.6","86.6","30.09","345","1.6","5","0.00","0.00"
"12:14:57","65.7","61.4","86","30.09","331","1.2","3.5","0.00","0.00"
"12:19:59","65.7","61.7","87","30.08","329","0.4","2.3","0.00","0.00"
"12:24:57","65.8","61.8","87","30.08","329","0.7","3.5","0.00","0.00"
"12:29:57","66","61.9","86.7","30.08","328","1.7","5","0.00","0.00"
"12:34:58","66.1","61.8","86.2","30.08","339","2.3","4.6","0.00","0.00"
"12:39:59","66","61.8","86.3","30.08","344","1.6","6","0.00","0.00"
"12:44:58","66.1","62.1","87","30.08","11","0.2","6","0.00","0.00"
"12:49:59","66.1","61.9","86.3","30.08","342","2.5","5.8","0.00","0.00"
"12:54:56","66.1","61.9","86.2","30.08","340","1","4","0.00","0.00"
"12:59:58","66.2","62.1","86.5","30.08","340","0.9","5","0.00","0.00"
"13:04:56","66.4","62.3","86.8","30.08","337","1.7","6","0.00","0.00"
"13:09:59","66.5","62.4","86.7","30.08","338","2.1","7","0.00","0.00"
"13:14:56","66.4","62.2","86.3","30.08","351","2.6","6","0.00","0.00"
"13:19:56","66.4","62.2","86.5","30.08","355","1.2","4.6","0.00","0.00"
"13:24:59","66.3","62.2","86.6","30.08","331","1.6","5","0.00","0.00"
"13:29:58","66.2","62.1","86.8","30.08","329","1.2","5","0.00","0.00"
"13:34:59","66.3","62.3","87","30.08","315","1.2","4.6","0.00","0.00"
"13:39:56","66.3","62.3","87","30.08","349","1.3","5","0.00","0.00"
"13:44:57","66.3","62.3","87","30.08","328","1.2","4","0.00","0.00"
"13:49:56","66.3","62.4","87.3","30.08","336","0.6","3.5","0.00","0.00"
"13:54:58","66.3","62.4","87.4","30.08","334","0.9","4","0.00","0.00"
"13:59:58","66.3","62.5","87.6","30.08","331","1.1","5","0.00","0.00"
"14:04:56","66.3","62.3","87","30.07","344","2.9","6","0.00","0.00"
"14:09:59","66.3","62.3","87","30.07","343","2.5","4.6","0.00","0.00"
"14:14:57","66.3","62.3","87","30.07","333","1.7","3.5","0.00","0.00"
"14:19:58","66.4","62.6","87.4","30.07","347","0.9","3.5","0.00","0.00"
"14:24:57","66.6","62.7","87.2","30.07","347","1.9","7","0.00","0.00"
"14:29:58","66.7","62.5","86.3","30.07","348","3","11.5","0.00","0.00"
"14:34:56","66.7","62.5","86.3","30.06","334","2.8","5.8","0.00","0.00"
"14:39:58","66.9","62.9","86.8","30.06","339","3.2","10.4","0.00","0.00"
"14:44:59","67","62.7","86","30.06","355","4.1","10.4","0.00","0.00"
"14:49:56","67","62.7","86","30.06","343","2.4","9.2","0.00","0.00"
"14:54:58","66.9","62.6","86","30.06","319","2.2","9.2","0.00","0.00"
"14:59:59","67","62.8","86.3","30.06","336","2.6","5","0.00","0.00"
"15:04:58","67.3","63.3","87","30.06","344","1.8","8","0.00","0.00"
"15:09:56","67.5","63","85.7","30.06","335","2.3","8.1","0.00","0.00"
"15:14:58","67.4","62.8","85.3","30.06","342","2.6","6","0.00","0.00"
"15:19:59","67.4","63.2","86.3","30.06","326","1.1","5","0.00","0.00"
"15:24:57","67.4","63.1","85.8","30.06","330","1.7","6","0.00","0.00"
"15:29:59","67.4","63.1","86","30.06","336","1.2","5","0.00","0.00"
"15:34:58","67.4","63.2","86.3","30.06","354","0.1","5","0.00","0.00"
"15:39:57","67.4","63.1","86.1","30.06","339","2.5","7","0.00","0.00"
"15:44:58","67.4","63.1","86","30.06","349","1.8","6","0.00","0.00"
"15:49:57","67.5","63.2","86","30.06","344","0.8","4","0.00","0.00"
"15:54:58","67.6","63","85.2","30.06","337","2.4","6","0.00","0.00"
"15:59:56","67.6","62.9","85.1","30.06","357","1.6","4.6","0.00","0.00"
"16:04:59","67.6","63.3","86","30.06","356","0.8","3","0.00","0.00"
"16:09:57","67.6","63.4","86.4","30.06","354","0.8","4","0.00","0.00"
"16:14:57","67.6","63.4","86.1","30.06","354","1.2","5","0.00","0.00"
"16:19:58","67.7","63.4","86","30.06","329","1.5","4","0.00","0.00"
"16:24:57","67.7","63.4","86","30.06","328","0.8","3.5","0.00","0.00"
"16:29:59","67.7","63.4","86","30.06","328","0.3","2.3","0.00","0.00"
"16:34:56","67.7","63.4","86","30.06","332","0.6","3","0.00","0.00"
"16:39:59","67.7","63.4","86","30.06","340","1.5","4","0.00","0.00"
"16:44:57","67.7","63.4","86","30.06","347","1","3.5","0.00","0.00"
"16:49:57","67.7","63.4","86","30.06","348","0.2","2.3","0.00","0.00"
"16:54:58","67.7","63.6","86.8","30.06","343","0.2","3","0.00","0.00"
"16:59:56","67.7","63.5","86.4","30.07","336","0.7","3.5","0.00","0.00"
"17:04:59","67.7","63.6","86.7","30.07","336","0.4","3.5","0.00","0.00"
"17:09:57","67.6","63.6","87","30.07","336","0.4","2.3","0.00","0.00"
"17:14:58","67.6","63.6","87","30.07","336","0.5","3.5","0.00","0.00"
"17:19:59","67.6","63.6","87","30.07","336","0.4","3.5","0.00","0.00"
"17:24:58","67.6","63.7","87.2","30.07","336","0.5","2.3","0.00","0.00"
"17:29:56","67.6","63.6","87","30.07","336","1.1","4","0.00","0.00"
"17:34:58","67.5","63.6","87.2","30.07","336","0.7","3.5","0.00","0.00"
"17:39:56","67.5","63.6","87.4","30.07","336","0.9","3.5","0.00","0.00"
"17:44:58","67.4","63.7","87.8","30.07","336","0.7","3.5","0.00","0.00"
"17:49:56","67.4","63.7","87.9","30.07","344","0.9","5","0.00","0.00"
"17:54:58","67.3","63.5","87.5","30.07","346","0.4","3.5","0.00","0.00"
"17:59:59","67.2","63.5","88","30.07","346","1","3.5","0.00","0.00"
"18:04:58","67.1","63.4","88","30.07","347","0.7","3.5","0.00","0.00"
"18:09:57","67","63.3","88","30.07","347","0.9","3.5","0.00","0.00"
"18:14:59","66.9","63.2","88","30.08","347","0.5","2.3","0.00","0.00"
"18:19:57","66.8","63.1","88","30.08","347","0.2","2.3","0.00","0.00"
"18:24:56","66.8","63.1","88","30.08","347","0.6","2.3","0.00","0.00"
"18:29:57","66.7","63.1","88.1","30.08","347","0.4","2.3","0.00","0.00"
"18:34:56","66.6","63.2","88.7","30.08","347","0.5","2.3","0.00","0.00"
"18:39:56","66.5","63.1","88.8","30.08","347","0.2","1.2","0.00","0.00"
"18:44:57","66.5","63.2","89","30.08","347","0","0","0.00","0.00"
"18:49:56","66.4","63.1","89","30.08","347","0.1","1.2","0.00","0.00"
"18:54:56","66.3","63","89","30.08","347","0","0","0.00","0.00"
"18:59:57","66.3","63.1","89.3","30.09","347","0.2","1.2","0.00","0.00"
"19:04:57","66.2","63.2","90","30.09","347","0","1.2","0.00","0.00"
"19:09:56","66.2","63.5","90.9","30.09","347","0","0","0.00","0.00"
"19:14:58","66.2","63.5","91","30.09","347","0","0","0.00","0.00"
"19:19:56","66","63.3","91","30.09","347","0","0","0.00","0.00"
"19:24:59","65.9","63.2","91.2","30.09","347","0","0","0.00","0.00"
"19:29:56","65.8","63.1","91","30.09","347","0","0","0.00","0.00"
"19:34:57","65.8","63.1","91","30.09","347","0","0","0.00","0.00"
"19:39:57","65.7","63","91.2","30.09","347","0","0","0.00","0.00"
"19:44:58","65.6","63.2","92","30.09","347","0","0","0.00","0.00"
"19:49:56","65.6","63.2","92","30.09","347","0","0","0.00","0.00"
"19:54:59","65.5","63.4","93","30.09","347","0","0","0.00","0.00"
"19:59:57","65.4","63.3","93","30.09","347","0","0","0.00","0.00"
"20:04:56","65.3","63.3","93.3","30.09","347","0","0","0.00","0.00"
"20:09:59","65.3","63.4","93.9","30.09","347","0","0","0.00","0.00"
"20:14:56","65.2","63.3","93.6","30.09","347","0","0","0.00","0.00"
"20:19:57","65.2","63.4","94","30.09","347","0","0","0.00","0.00"
"20:24:56","65.1","63.3","94","30.09","347","0","0","0.00","0.00"
"20:29:57","65.1","63.3","94","30.09","347","0","0","0.00","0.00"
"20:34:59","65","63.2","94","30.09","347","0","0","0.00","0.00"
"20:39:56","65","63.2","94","30.09","347","0","0","0.00","0.00"
"20:44:57","65","63.2","94","30.09","347","0","0","0.00","0.00"
"20:49:58","64.9","63.3","94.5","30.09","347","0","0","0.00","0.00"
"20:54:56","64.9","63.4","95","30.09","347","0","0","0.00","0.00"
"20:59:57","64.8","63.3","95","30.10","347","0","0","0.00","0.00"
"21:04:56","64.8","63.3","95","30.10","347","0","0","0.00","0.00"
"21:09:58","64.8","63.3","95","30.10","347","0","0","0.00","0.00"
"21:14:58","64.7","63.2","94.7","30.10","347","0","0","0.00","0.00"
"21:19:59","64.7","63","94.2","30.10","347","0","0","0.00","0.00"
"21:24:58","64.7","62.9","94","30.10","347","0","0","0.00","0.00"
"21:29:57","64.6","62.8","94","30.10","347","0","0","0.00","0.00"
"21:34:59","64.6","62.8","94","30.10","347","0","0","0.00","0.00"
"21:39:56","64.6","62.8","94","30.10","347","0","0","0.00","0.00"
"21:44:58","64.6","62.8","94","30.10","347","0","0","0.00","0.00"
"21:49:56","64.6","62.8","94.1","30.10","347","0","0","0.00","0.00"
"21:54:57","64.6","62.9","94.3","30.10","347","0","0","0.00","0.00"
"21:59:56","64.6","62.8","94","30.10","347","0","0","0.00","0.00"
"22:04:58","64.5","62.7","94","30.10","347","0","0","0.00","0.00"
"22:09:57","64.5","62.7","94","30.10","347","0","0","0.00","0.00"
"22:14:56","64.5","62.7","94","30.10","347","0","0","0.00","0.00"
"22:19:57","64.5","62.7","94","30.10","347","0","0","0.00","0.00"
"22:24:57","64.5","62.9","94.5","30.10","347","0","0","0.00","0.00"
"22:29:56","64.5","62.8","94.3","30.10","347","0","0","0.00","0.00"
"22:34:58","64.5","63","95","30.10","347","0","0","0.00","0.00"
"22:39:58","64.5","63","95","30.10","347","0","0","0.00","0.00"
"22:44:57","64.5","63","95","30.10","347","0","0","0.00","0.00"
"22:49:57","64.4","62.9","95","30.10","347","0","0","0.00","0.00"
"22:54:59","64.4","62.9","95","30.10","347","0","0","0.00","0.00"
"22:59:56","64.4","62.9","95","30.10","347","0","0","0.00","0.00"
"23:04:56","64.4","62.9","95","30.10","347","0","0","0.00","0.00"
"23:09:59","64.4","62.9","95","30.10","347","0","0","0.00","0.00"
"23:14:58","64.4","62.9","95","30.10","347","0","0","0.00","0.00"
"23:19:58","64.4","62.9","95","30.10","347","0","0","0.00","0.00"
"23:24:56","64.4","62.9","95","30.10","347","0","0","0.00","0.00"
"23:29:56","64.3","62.8","95","30.10","347","0","0","0.00","0.00"
"23:34:57","64.3","62.8","95","30.09","347","0","0","0.00","0.00"
"23:39:59","64.3","62.8","95","30.09","347","0","0","0.00","0.00"
"23:44:57","64.3","62.8","95","30.09","347","0","0","0.00","0.00"
"23:49:59","64.3","62.8","95","30.09","347","0","0","0.00","0.00"
"23:54:56","64.2","62.7","95","30.09","347","0","0","0.00","0.00"
"23:59:56","64.2","62.7","95","30.10","347","0","0","0.00","0.00"
